THORAD AGENA D DEB, 4982

Orbit data source: Space-Track

THORAD AGENA D DEB, 4982 is space debris in SSO originally from a launch on Wed, 08 Apr 1970 UTC launched from the Air Force Western Test Range (AFWTR). Debris objects in space refer to the collection of defunct objects orbiting the Earth. Examples of debris include non-operational satellites, rocket bodies, and fragments generated from explosions, collisions, or faulty payload assembly.

Loading next visibility...
Identifier
4982, 1970-025HC
Orbit
SSO
Country
Flag of USUS
Related business
Manufacturer
Unknown
Mission
Spacecraft
Bus & Motor
Unknown
Mass
Unknown
Launch date (UTC)
1970-04-08 (56 years ago)
Launch vehicle
Unknown
Launch site
Air Force Western Test Range (AFWTR)
Object type
Payload
Rocket body
Debris
Shape & HBR
Unknown shape, 0.1 m
Radar Cross Section
Medium (>0.1 m² and <1 m²)

Expand to show TLE details & history
Last TLE update: 10 hours ago

TLE from 10 hours ago
0 THORAD AGENA D DEB
1 04982U 70025HC  26255.90782877  .00000076  00000-0  20811-3 0  9993
2 04982  99.6075 233.6780 0080787  66.4809 349.0481 13.40961935755257
Epoch: 2026-09-12T21:47Z
TLE epoch observation values (Epoch: 2026-09-12T21:47:16.405Z)
Latitude
54.30335°
Longitude
-98.60555°
Altitude
1,055.198 km
Speed
7.359 km/s
True Right ascension
14h 40m 29s
True Declination
54° 08' 48"
Sunlit
Object was in daylight at epoch
Visualization orbit readout
Latitude
Unknown
Longitude
Unknown
Altitude
Unknown
Speed
Unknown
Apparent Right ascension
Unknown
Apparent Declination
Unknown
Sunlit
N/A
Visualization observer readout
Local Sidereal Time
23:49:59
Azimuth
Unknown
Elevation
Unknown
Doppler factor
Unknown
Orbital elements
Apogee altitude
1,163.444 km
Perigee altitude
1,042.569 km
Semi-major axis
7,481.144 km
Eccentricity
0.00808
Inclination
99.6075°
RAAN
233.678°
Arg. of periapsis
66.4809°
True anomaly
348.87046°
Mean anomaly
349.0481°
Eccentric anomaly
348.95946°
Mean motion
3.35422 °/min
Orbital period
107.33 mins
BSTAR
0.00020811
Loading maneuver chart data...
Computing Atmospheric mass density...

Documentation

Showing up to 5 results
|